Home > Weather > Ljubljana > Past weeks

Flag for Slovenia Past Weather in Ljubljana, Slovenia — Yesterday and Last 2 Weeks

Now
66 °F

Mild.


Feels Like: 66 °F
Forecast: 61 / 84 °F
Wind: No wind

Location: Ljubljana / Bezigrad

Current Time: Jul 1, 2016 at 6:34:01 AM

Latest Report: Jul 1, 2016 at 5:00 AM


Visibility: N/A

Pressure: 30.03 "Hg

Humidity: 79%

Dew Point: 59 °F

Location of LjubljanaLocation

Past Weather in Ljubljana — Graph

°F

Ljubljana Temperature Yesterday

Maximum temperature yesterday: 88 °F (at 5:00 PM)
Minimum temperature yesterday: 62 °F (at 5:00 AM)
Average temperature yesterday: 75 °F

High & Low Weather Summary for the Past Weeks

 TemperatureHumidityPressure
High90 °F (Jun 24, 3:00 PM)96% (Jun 28, 5:00 AM)30.27 "Hg (Jun 28, 5:00 AM)
Low54 °F (Jun 19, 6:00 AM)32% (Jun 29, 6:00 PM)29.59 "Hg (Jun 17, 3:00 AM)
Average71 °F68%30.00 "Hg
* Reported Jun 16 5:00 AM — Jul 1 5:00 AM, Ljubljana, Weather by CustomWeather, © 2016

Note: Actual official high and low records may vary slightly from our data, if they occured in-between our weather recording intervals... More about our weather records

Advertising

Ljubljana Weather History for the Previous 24 Hours

Scroll right to see more
 ConditionsComfort  
Time TempWeatherWind HumidityBarometerVisibility
5:00 AM
Fri, Jul 1
66 °FMild.No wind79%30.03 "HgN/A
4:00 AM65 °FMild.2 mph81%30.02 "HgN/A
3:00 AM67 °FMild.No wind73%30.01 "HgN/A
2:00 AM68 °FMild.1 mph71%30.01 "HgN/A
1:00 AM70 °FMild.No wind66%30.00 "HgN/A
11:00 PM
Thu, Jun 30
75 °FMild.2 mph50%29.99 "HgN/A
10:00 PMN/APassing clouds.N/AN/AN/A25 mi
9:00 PM79 °FPassing clouds.3 mph40%29.94 "Hg25 mi
8:00 PM81 °FScattered clouds.2 mph40%29.92 "Hg25 mi
7:00 PM85 °FPassing clouds.3 mph35%29.90 "Hg25 mi
6:00 PM86 °FPassing clouds.5 mph35%29.89 "Hg25 mi
5:00 PM88 °FPassing clouds.3 mph32%29.89 "Hg25 mi
4:00 PM86 °FScattered clouds.3 mph38%29.89 "Hg25 mi
3:00 PM84 °FScattered clouds.2 mph42%29.90 "Hg25 mi
2:00 PM85 °FScattered clouds.1 mph42%29.91 "Hg25 mi
1:00 PM82 °FScattered clouds.1 mph46%29.94 "Hg25 mi
12:00 PM81 °FPartly sunny.2 mph48%29.96 "Hg25 mi
11:00 AM77 °FPartly sunny.1 mph54%29.97 "Hg25 mi
9:00 AM71 °FPartly sunny.1 mph63%29.99 "Hg31 mi
8:00 AM67 °FPartly sunny.1 mph69%30.00 "Hg31 mi
7:00 AM65 °FOvercast.No wind73%30.01 "Hg31 mi
6:00 AM62 °FOvercast.1 mph79%30.01 "Hg31 mi
Weather by CustomWeather, © 2016

See weather overviewHow to use our weather pages